Weather in Phuket

Thailand     7°52′37″N   98°23′48″E
temp.,
°C
wind,
m/s
gust,
m/s
humid.,
%
clouds,
%
prec.,
mm/h
press.,
hPa
HPBL,
m
22 january, sat
sat2201:00+27ne457512 1.3 1011386
04:00+26ne447796 0.0 1009479
07:00+26ene44785 0.0 1010514
10:00+26ene55782 0.0 1012548
13:00+27se22742 0.0 1010317
16:00+28sw446660 0.0 1006396
19:00+28wnw44685 0.0 1007542
22:00+28wnw34694 0.0 1010424
23 january, sun
sun2301:00+27nnw33720 0.0 1009467
04:00+26ne33764 0.2 1008481
07:00+26nne337534 0.9 1009449
10:00+26ene337549 0.0 1012467
13:00+27se22705 0.0 1009214
16:00+29sw44645 0.0 1005321
19:00+28wnw54716 0.0 1007558
22:00+28wnw44745 0.0 1009418
24 january, mon
mon2401:00+27n337665 0.3 1009353
04:00+26ene55765 0.6 1007484
07:00+26ene45755 0.8 1009498
10:00+26ne33761 0.0 1011420
13:00+27ene116950 0.0 1008175
16:00+29w44625 0.0 1005447
19:00+28wnw667576 0.0 1007465
22:00+28nnw116993 0.6 1009185
25 january, tue
tue2501:00+27ene767341 0.7 1008491
04:00+27e7774100 0.0 1007572
07:00+26ene567470 0.0 1009529
10:00+26ene467379 0.0 1011461
13:00+28e226153 0.0 1008273
16:00+29ssw546161 0.0 1005273
19:00+28nw4467100 0.0 1007455
22:00+28nnw01669 0.0 1009262
26 january, wed
wed2601:00+27e77745 0.0 1008544
04:00+27e797723 0.0 1007596
07:00+26e8107960 0.0 1008668
10:00+27e687664 0.0 1010632
13:00+29se246468 0.0 1007302
16:00+28s447199 0.0 1004248
19:00+29ssw226892 0.0 1006279
22:00+28e677046 0.0 1008751